Wetbulb
57.87 64.27 67.10 67.64 67.52 67.55 66.98 67.86 67.59 68.49 68.32 67.37 66.43 66.12 65.36 66.06 66.20 67.47 69.05 68.76 68.78 68.25 67.67 66.87 66.68 66.70 66.22 66.89 67.11 66.40 65.03 65.47 68.31 67.72 67.15 65.37 64.41 61.31 63.38 66.67 66.48 64.74 64.18
55.16 60.22 66.33 67.04 67.67 67.13 67.33 67.30 67.40 67.98 67.84 67.11 66.99 67.01 65.93 65.98 66.43 67.69 69.15 69.05 68.81 68.32 67.44 67.26 66.71 67.05 66.87 67.06 67.17 66.52 65.64 66.84 68.10 66.71 66.92 63.48 62.40 59.51 59.56 62.62 61.02 60.44 61.72
54.52 55.76 63.48 66.36 67.23 66.85 66.87 67.11 67.74 68.08 67.81 68.31 66.82 66.65 66.54 66.64 65.64 65.77 67.77 68.76 68.42 68.27 68.22 68.02 67.75 67.52 67.56 66.70 66.94 67.15 66.58 65.39 66.79 68.18 66.52 62.48 61.69 58.06 56.92 57.40 56.76 55.76 57.39
55.00 55.82 58.21 65.52 66.61 67.52 67.86 67.58 67.86 68.22 68.05 68.57 66.32 65.95 65.29 64.71 66.04 66.89 67.61 68.52 68.61 68.47 68.29 68.24 68.34 68.42 68.24 68.27 67.52 67.54 67.55 67.30 65.47 66.61 66.28 65.79 64.58 60.61 54.10 54.61 52.15 51.04 51.04
55.11 55.32 56.61 60.70 67.22 68.11 67.95 67.58 67.61 67.87 68.47 68.29 67.69 66.37 65.70 66.03 66.97 68.05 67.34 68.16 68.51 68.78 67.95 68.49 68.42 68.37 68.51 69.08 69.14 67.64 67.33 68.25 67.32 66.36 65.81 64.59 63.78 62.14 58.23 53.01 50.01 48.37 48.18
54.52 55.91 57.24 57.89 65.40 68.38 68.33 67.82 67.42 67.21 68.07 68.05 67.30 65.96 65.16 65.26 65.15 65.93 66.09 67.30 67.76 68.44 68.88 68.30 68.37 68.47 68.32 68.25 68.61 69.04 68.27 67.96 68.16 67.65 66.88 65.73 63.51 61.68 57.47 53.07 52.28 50.70 48.01
54.07 55.08 55.40 55.65 61.17 67.00 67.71 67.98 67.23 66.84 67.34 67.52 67.40 66.60 65.90 65.40 64.99 65.43 65.47 65.86 66.58 67.30 68.02 68.66 68.19 68.08 68.37 68.66 68.76 68.55 68.60 68.41 67.93 68.08 67.08 67.72 67.29 64.52 60.76 56.66 50.34 48.51 45.24
53.69 54.59 55.73 56.20 57.64 64.94 67.67 67.72 66.80 66.64 67.24 67.04 67.33 67.39 66.94 65.84 65.63 66.36 66.39 66.15 66.22 67.03 68.67 68.71 68.57 68.93 68.87 68.83 69.00 68.44 68.37 68.86 68.45 68.30 67.93 67.66 67.85 65.33 60.69 56.41 52.25 46.72 44.57
53.33 54.30 55.43 56.32 56.26 58.87 65.88 67.15 67.04 66.54 66.79 66.68 67.42 67.54 67.44 67.46 66.36 67.11 67.92 67.28 68.03 68.00 68.58 68.98 68.40 68.66 68.95 68.98 68.80 67.98 68.13 68.23 68.52 68.45 68.20 67.64 67.51 65.88 62.25 58.62 57.79 52.56 44.96
52.41 53.88 55.08 55.85 56.37 56.63 59.73 66.53 67.32 66.88 66.88 66.94 66.99 67.30 67.92 68.23 68.32 68.49 67.81 68.22 68.64 69.00 68.78 69.00 68.63 68.67 68.77 69.14 68.89 67.88 68.36 67.90 67.97 67.72 67.33 67.33 65.05 64.23 61.40 59.60 58.91 56.61 53.39
51.13 52.12 54.16 55.77 56.09 56.50 56.87 59.88 66.05 66.83 67.10 67.23 67.35 67.84 68.41 68.39 68.85 68.89 69.18 68.49 68.83 69.10 68.83 68.73 68.82 68.65 68.17 68.71 68.24 68.19 68.26 67.13 67.04 67.03 66.36 65.89 63.39 63.00 61.19 59.53 58.32 55.99 52.84
52.37 51.14 51.85 52.61 53.72 53.35 54.00 57.69 60.81 65.30 67.31 67.52 67.40 67.35 68.10 68.47 68.49 69.08 69.29 69.42 68.75 69.19 68.90 68.75 68.48 68.36 68.41 68.00 66.97 66.59 67.00 66.39 66.52 66.27 65.39 64.67 61.37 62.85 61.99 59.71 57.11 54.68 50.27
47.77 48.15 48.73 48.60 48.45 50.65 57.53 56.63 55.97 62.48 64.87 66.90 66.89 66.98 67.02 67.92 68.69 68.74 69.15 69.10 68.80 68.80 68.62 68.28 68.00 67.72 68.01 67.22 66.71 66.29 66.07 65.79 65.76 65.87 64.47 63.93 60.73 60.75 59.28 57.59 55.00 52.21 46.31
47.06 47.64 47.27 48.34 49.18 49.62 50.83 56.33 59.12 57.64 60.32 65.53 66.19 66.56 66.74 67.42 68.36 68.66 68.69 68.41 68.66 68.63 67.87 67.83 67.62 67.72 67.52 66.96 66.11 65.40 65.34 64.31 64.41 63.32 63.77 62.96 60.09 58.28 55.67 53.01 50.25 46.13 42.97
46.52 46.41 46.59 46.70 48.16 49.27 50.15 51.35 56.43 59.68 58.25 60.18 65.47 65.93 67.02 67.46 67.86 68.05 68.35 68.36 68.41 67.88 67.71 67.21 67.26 67.25 66.65 65.85 66.18 64.81 64.16 62.43 61.37 60.07 60.91 58.45 56.85 51.03 51.91 49.63 45.05 43.09 40.13
45.68 46.69 46.66 46.75 46.83 48.51 49.65 52.31 54.88 58.70 58.80 57.73 59.30 64.97 65.74 66.57 67.18 67.43 67.53 67.68 67.84 67.19 67.33 65.88 66.21 65.49 65.11 53.10 50.02 59.87 63.07 60.70 57.17 54.56 54.42 53.00 48.97 48.11 44.86 44.09 42.89 43.43 40.42
44.19 45.41 46.82 47.12 47.21 48.13 48.80 48.82 50.30 56.54 56.96 57.43 58.04 58.72 64.09 65.05 65.94 66.92 66.88 66.63 66.60 66.25 65.31 64.39 64.89 64.67 65.20 47.30 49.12 49.30 61.51 57.77 55.75 52.58 49.22 47.30 47.50 45.66 44.81 39.97 38.95 39.25 39.35
43.37 43.75 46.16 47.11 48.42 48.09 48.09 47.97 48.48 50.60 55.32 56.56 58.98 57.47 60.44 63.96 65.16 66.07 66.06 65.92 65.53 64.18 63.65 63.29 63.83 63.88 63.49 46.03 46.76 46.40 58.82 56.31 54.17 51.59 49.65 48.04 44.45 44.56 41.49 40.90 39.84 39.00 37.80
45.77 45.41 46.40 46.52 47.72 46.61 47.91 47.64 46.85 47.97 52.79 53.62 54.67 56.09 61.03 62.80 64.72 65.05 65.38 65.67 63.53 62.88 62.86 63.07 62.68 62.77 61.90 43.86 43.86 50.38 53.88 52.43 50.77 50.30 50.15 48.70 45.61 40.77 41.21 40.67 37.58 35.83 33.79
46.54 46.55 46.70 46.13 45.75 45.67 46.65 46.48 46.19 46.52 48.92 51.51 53.21 54.67 55.39 57.65 63.94 64.45 63.85 65.02 63.18 62.13 61.89 61.26 61.93 56.89 56.39 41.85 43.68 52.06 53.44 49.38 47.23 47.43 48.17 41.29 44.93 38.03 38.14 41.03 37.08 34.86 33.48
47.27 46.89 47.05 46.24 44.78 45.33 46.10 44.61 45.04 45.11 47.27 50.97 52.47 53.64 53.58 52.45 53.02 62.05 61.91 62.51 62.21 60.13 58.80 57.19 56.57 55.77 52.45 47.39 44.35 45.67 52.14 48.44 43.80 42.01 40.13 40.76 36.74 37.51 38.30 39.15 39.45 38.24 35.20
42.20 44.41 46.43 46.29 47.19 46.27 44.91 44.40 45.00 46.77 47.29 48.28 49.62 51.50 52.19 51.17 50.85 50.22 52.26 56.03 56.07 53.74 49.67 46.25 42.01 43.64 46.47 41.83 40.94 41.32 45.11 42.85 42.94 40.07 39.18 37.39 36.74 37.17 36.41 36.10 33.46 32.48 32.50
39.79 40.99 41.92 43.72 45.92 47.84 46.12 44.01 44.93 47.02 46.99 47.07 47.77 49.23 51.14 50.59 49.94 48.93 48.23 46.65 47.54 47.77 43.61 44.43 41.81 38.03 37.66 39.28 38.37 38.19 38.01 36.94 37.66 36.41 35.41 35.81 36.08 34.97 32.66 32.38 31.91 32.05 32.67
37.85 39.26 39.94 39.84 40.29 41.82 44.83 46.16 44.46 45.76 47.03 46.45 46.75 48.26 49.54 47.92 49.56 47.67 47.54 45.55 42.11 39.97 38.93 38.57 37.66 36.03 36.79 37.50 38.77 37.88 35.64 34.61 34.29 34.26 35.08 34.53 34.27 34.74 32.58 31.85 32.45 33.26 32.63
37.11 38.01 37.96 37.69 38.37 39.62 40.10 41.39 41.76 42.37 42.62 45.76 46.25 46.96 47.59 48.69 47.16 42.37 41.17 44.32 42.83 40.64 39.82 38.03 38.11 36.95 35.34 36.41 37.91 36.40 34.96 34.43 34.10 33.75 33.83 33.48 33.25 32.67 31.89 31.90 32.11 32.05 32.01
35.56 35.54 35.75 35.82 36.52 37.25 38.04 39.26 39.84 40.06 40.29 41.27 44.90 46.59 46.93 47.27 47.19 43.21 38.37 36.53 36.23 37.88 38.06 37.30 36.71 34.07 35.46 35.94 36.07 36.02 35.44 34.58 33.67 34.14 33.30 33.34 33.53 33.10 32.38 32.26 31.80 32.18 31.90
MSLP
1002.08 1002.30 1002.88 1003.82 1004.81 1006.00 1006.96 1007.82 1008.79 1009.69 1010.47 1010.97 1011.65 1012.28 1012.59 1013.45 1014.16 1014.36 1014.77 1015.25 1015.64 1016.35 1017.00 1017.34 1017.94 1018.33 1018.62 1018.86 1019.50 1020.06 1020.58 1021.10 1021.43 1021.65 1022.28 1022.96 1023.34 1023.68 1023.94 1023.75 1023.91 1024.20 1024.50
1001.66 1001.93 1002.30 1003.03 1003.75 1004.62 1005.38 1006.70 1007.55 1008.71 1009.44 1010.12 1010.86 1011.60 1012.17 1012.83 1013.32 1013.72 1013.97 1014.33 1014.89 1015.47 1016.09 1016.54 1017.06 1017.55 1018.09 1018.68 1019.05 1019.47 1019.98 1020.43 1020.96 1020.90 1021.38 1022.40 1023.57 1024.01 1024.44 1024.34 1024.74 1025.10 1025.09
1000.80 1001.23 1001.66 1002.10 1002.87 1003.58 1004.45 1005.54 1006.42 1007.41 1008.41 1009.36 1010.51 1011.39 1012.04 1012.47 1012.83 1012.85 1012.96 1013.38 1014.09 1014.65 1015.07 1015.63 1016.16 1016.83 1017.37 1017.87 1018.42 1018.78 1019.10 1019.67 1020.50 1020.63 1020.51 1021.37 1021.68 1023.59 1024.80 1025.04 1025.37 1025.80 1025.95
1000.14 1000.33 1000.86 1001.37 1001.97 1002.62 1003.76 1004.49 1005.51 1006.32 1007.51 1008.53 1009.30 1009.89 1009.93 1009.97 1010.35 1011.33 1012.00 1012.64 1013.28 1013.73 1014.47 1014.88 1015.33 1015.91 1016.45 1016.92 1017.51 1018.02 1018.36 1018.89 1019.39 1020.33 1020.41 1020.59 1020.93 1022.00 1023.88 1025.35 1026.20 1026.58 1026.82
999.59 999.28 999.66 1000.28 1001.07 1001.92 1002.59 1003.70 1004.48 1005.41 1006.19 1007.18 1007.83 1008.62 1009.01 1009.20 1009.73 1010.45 1011.07 1011.78 1012.43 1012.93 1013.48 1013.91 1014.37 1014.98 1015.48 1015.97 1016.49 1017.20 1017.71 1018.01 1018.33 1018.86 1019.58 1020.25 1020.63 1021.27 1022.07 1024.09 1026.13 1027.04 1027.63
998.92 998.62 998.75 999.59 999.86 1000.67 1001.68 1002.68 1003.58 1004.10 1004.90 1005.75 1006.54 1007.12 1007.54 1008.28 1008.77 1009.36 1009.90 1010.55 1011.28 1012.09 1012.60 1013.07 1013.36 1013.79 1014.50 1014.90 1015.51 1016.23 1016.67 1017.05 1017.45 1017.89 1018.49 1018.82 1019.50 1020.32 1021.26 1023.09 1025.07 1026.23 1027.76
998.01 997.91 998.04 998.55 998.92 999.63 1000.45 1001.50 1002.43 1003.17 1003.89 1004.50 1005.33 1005.88 1006.42 1007.04 1007.56 1008.09 1008.51 1009.36 1009.91 1010.59 1010.85 1011.66 1012.29 1012.65 1013.26 1013.95 1014.68 1015.23 1015.60 1015.97 1016.44 1016.89 1017.31 1017.89 1018.34 1019.25 1020.37 1021.65 1024.01 1025.54 1027.49
997.10 997.17 997.27 997.56 998.13 998.39 999.16 1000.13 1001.09 1001.93 1002.90 1003.49 1003.90 1004.63 1005.40 1005.99 1006.17 1006.84 1007.24 1007.80 1008.39 1008.62 1009.52 1010.44 1011.28 1011.81 1012.51 1013.18 1013.76 1014.24 1014.72 1015.13 1015.47 1015.82 1016.38 1017.04 1017.70 1018.53 1019.07 1020.50 1022.34 1024.97 1026.20
996.46 996.34 996.47 996.51 996.96 997.45 997.80 998.62 999.65 1000.61 1001.62 1001.97 1002.78 1003.57 1004.17 1004.69 1005.04 1005.34 1006.15 1006.60 1007.07 1007.66 1008.53 1009.20 1010.01 1010.70 1011.38 1012.07 1012.69 1013.12 1013.74 1014.42 1014.70 1015.00 1015.66 1016.12 1016.84 1017.63 1018.48 1019.24 1020.01 1021.72 1024.30
996.15 995.82 995.78 995.88 996.23 996.69 996.87 997.55 998.40 999.17 999.74 1000.55 1001.54 1002.09 1002.55 1003.09 1003.56 1004.57 1005.00 1005.25 1005.57 1006.48 1007.31 1008.05 1008.84 1009.39 1010.25 1010.99 1011.60 1012.10 1012.67 1013.36 1013.83 1014.28 1014.87 1015.47 1016.24 1016.74 1017.42 1018.31 1019.26 1019.94 1021.09
996.13 996.07 995.83 995.55 995.71 996.12 996.65 996.89 997.36 997.97 998.96 999.77 1000.17 1000.91 1001.38 1001.98 1002.94 1003.22 1003.54 1004.20 1004.94 1005.58 1006.16 1006.49 1007.42 1008.03 1008.97 1009.89 1010.51 1010.96 1011.45 1012.05 1012.69 1013.35 1013.93 1014.52 1015.50 1016.13 1016.92 1017.62 1018.56 1019.66 1020.63
996.05 997.13 997.12 996.81 996.53 996.54 996.85 996.87 996.95 997.38 997.93 998.29 999.13 999.72 1000.29 1001.21 1001.93 1002.19 1002.51 1003.24 1003.83 1004.37 1004.85 1005.78 1006.43 1007.05 1007.69 1008.55 1009.16 1009.84 1010.36 1011.04 1011.70 1012.14 1013.17 1013.60 1014.77 1015.19 1016.15 1017.21 1017.74 1018.90 1020.44
998.49 998.79 998.47 997.77 997.70 997.54 997.28 997.21 997.25 996.94 997.19 998.09 998.49 999.00 999.57 1000.19 1000.50 1000.92 1001.41 1002.15 1002.72 1003.29 1004.23 1004.91 1005.32 1005.82 1006.43 1007.31 1008.02 1008.76 1009.46 1010.00 1010.61 1011.21 1012.07 1012.74 1013.97 1014.76 1015.52 1016.38 1017.62 1018.62 1019.84
1000.67 999.81 999.57 998.91 998.61 998.49 998.09 997.67 997.39 997.46 997.18 997.36 997.84 998.24 998.60 998.85 999.24 999.79 1000.40 1001.11 1001.63 1002.33 1003.00 1003.50 1004.15 1004.98 1005.70 1006.50 1007.27 1007.87 1008.66 1009.38 1010.03 1010.66 1011.12 1011.82 1012.81 1013.75 1014.80 1016.18 1017.16 1018.54 1020.36
1001.60 1000.49 1000.34 999.96 999.23 998.91 998.65 998.17 997.79 997.57 997.65 997.24 997.03 997.03 997.42 998.06 998.58 999.09 999.54 1000.10 1000.69 1001.24 1001.94 1002.87 1003.57 1004.11 1004.82 1005.57 1006.21 1007.27 1007.98 1008.82 1009.55 1010.33 1010.79 1011.32 1012.06 1013.06 1013.68 1014.74 1017.10 1017.91 1020.26
1002.18 1001.31 1001.03 1000.75 1000.09 999.69 999.30 998.51 997.93 997.57 997.54 997.34 996.81 996.79 997.15 997.61 997.93 998.28 998.80 999.35 999.74 1000.34 1001.07 1001.81 1002.58 1003.31 1003.88 1004.45 1005.44 1006.17 1007.17 1008.02 1008.93 1009.95 1010.90 1011.54 1012.29 1013.29 1014.07 1014.74 1015.71 1014.85 1017.61
1002.46 1001.58 1001.30 1000.82 1000.61 1000.39 999.97 999.30 998.63 998.05 997.60 997.24 997.09 996.81 996.81 996.87 997.18 997.58 998.17 998.54 998.97 999.83 1000.34 1001.13 1001.89 1002.45 1002.91 1003.99 1004.77 1005.49 1006.44 1007.60 1008.32 1009.30 1010.46 1011.56 1012.35 1013.43 1014.39 1015.07 1015.50 1016.48 1016.14
1002.65 1002.02 1001.39 1000.89 1000.98 1000.89 1000.25 999.80 999.32 998.87 998.27 997.77 997.24 996.83 996.64 996.38 996.71 997.07 997.33 998.00 998.48 999.22 999.81 1000.54 1001.18 1001.83 1002.18 1003.08 1004.00 1004.94 1006.19 1007.06 1008.11 1008.86 1009.63 1010.61 1011.86 1012.85 1013.92 1015.38 1016.21 1017.40 1017.40
1002.49 1002.21 1001.65 1001.47 1001.50 1000.89 1000.45 999.97 999.58 999.50 998.97 998.34 997.74 997.29 996.59 996.01 996.14 996.34 996.62 997.29 998.12 998.84 999.39 1000.09 1000.60 1001.18 1001.87 1002.70 1003.84 1004.76 1005.74 1006.55 1007.63 1008.32 1009.03 1009.64 1010.78 1011.64 1013.21 1014.72 1015.86 1017.03 1018.21
1002.55 1002.48 1002.62 1002.06 1001.51 1001.18 1000.67 1000.54 1000.34 1000.22 999.94 999.37 998.41 997.79 997.16 996.46 995.65 995.83 996.32 996.98 997.70 998.32 999.08 999.71 999.92 1000.41 1001.37 1002.36 1003.17 1003.91 1005.00 1006.17 1007.29 1007.96 1008.65 1009.37 1009.97 1010.96 1012.32 1013.66 1014.77 1016.67 1017.78
1002.88 1003.14 1003.24 1002.34 1001.93 1001.60 1001.69 1001.61 1001.29 1001.01 1001.03 1000.24 998.68 998.03 997.24 996.76 996.56 995.83 996.05 996.59 997.24 997.92 998.60 999.19 999.67 1000.25 1000.81 1001.99 1002.75 1003.15 1004.01 1005.37 1006.57 1007.62 1008.80 1009.78 1010.60 1011.18 1011.95 1012.74 1013.65 1014.87 1017.10
1003.63 1003.45 1003.16 1002.96 1002.37 1002.34 1002.40 1002.55 1002.16 1002.11 1001.45 1000.92 999.32 998.87 998.18 997.84 997.48 997.25 996.56 996.52 997.07 997.97 998.74 999.48 1000.15 1000.67 1001.28 1001.70 1002.78 1003.05 1003.47 1004.59 1005.76 1007.28 1008.47 1009.56 1010.59 1011.77 1012.82 1013.55 1014.35 1015.71 1017.49
1004.97 1004.45 1003.71 1003.00 1002.85 1003.40 1003.11 1003.07 1002.90 1002.20 1001.76 1000.99 1000.02 999.57 998.77 998.60 998.46 998.32 997.87 997.60 997.68 998.04 998.98 999.87 1000.72 1001.67 1001.98 1002.50 1003.08 1003.63 1004.18 1004.84 1006.09 1007.09 1008.31 1009.41 1010.85 1011.97 1013.30 1013.83 1014.54 1015.29 1016.78
1005.87 1005.23 1004.51 1003.92 1003.77 1003.54 1003.22 1002.99 1003.14 1002.56 1001.87 1001.39 1000.63 999.96 999.68 999.81 999.18 999.27 999.15 999.03 998.95 999.06 999.51 1000.27 1000.96 1001.97 1002.61 1003.12 1003.58 1004.22 1005.03 1005.58 1006.78 1007.89 1009.05 1010.23 1011.58 1012.65 1013.52 1014.54 1015.22 1016.34 1017.04
1006.28 1006.08 1005.65 1005.43 1005.15 1004.96 1004.55 1004.05 1003.55 1002.95 1002.54 1001.96 1001.13 1000.47 1000.15 1000.13 1000.14 1000.20 1000.32 1000.06 1000.03 999.77 1000.03 1000.56 1001.20 1001.96 1002.72 1003.03 1003.17 1003.48 1004.45 1005.48 1006.66 1008.00 1009.38 1010.50 1011.60 1012.73 1013.56 1014.70 1015.42 1016.17 1017.28
1007.12 1006.77 1006.52 1006.29 1005.96 1005.44 1005.00 1004.44 1003.95 1003.61 1003.00 1002.36 1001.35 1001.01 1000.84 1000.37 1000.45 1000.57 1000.37 1000.44 1000.42 1000.55 1000.48 1000.77 1001.03 1001.95 1002.18 1003.01 1003.68 1004.01 1004.61 1005.67 1006.58 1007.57 1008.77 1009.79 1010.47 1011.28 1012.50 1013.77 1014.86 1015.86 1016.64
Wind_Speed
18 17 20 21 21 21 22 22 21 19 15 12 13 12 13 11 10 13 17 17 15 17 15 11 11 11 11 11 12 9 10 7 5 5 5 6 6 7 5 4 5 7 8
18 15 18 22 22 22 23 23 23 21 18 13 13 11 12 10 10 12 15 17 18 18 16 14 13 14 11 12 12 12 7 7 8 5 6 5 3 6 6 5 6 6 6
18 14 16 20 22 23 22 22 24 23 21 20 13 11 9 8 10 14 14 16 18 18 18 17 13 14 12 11 12 13 13 9 7 8 4 4 5 5 3 7 7 7 5
23 20 16 19 21 21 20 22 23 23 21 21 18 20 16 16 14 13 12 13 18 19 18 17 16 15 12 12 13 12 12 10 10 7 6 2 4 4 5 4 7 7 7
23 24 22 19 21 20 20 20 23 22 23 23 21 18 17 12 11 11 16 16 16 18 19 18 17 16 12 14 14 15 15 11 10 10 8 6 4 5 4 5 5 5 5
21 23 21 18 19 17 19 19 23 24 24 24 24 23 22 16 12 14 13 13 12 13 18 19 17 16 15 16 15 15 17 14 13 12 11 10 7 5 5 4 6 6 4
22 20 22 19 19 19 20 19 23 23 24 25 24 24 23 20 19 17 14 15 13 13 18 21 19 16 17 16 15 15 16 16 14 15 11 11 10 6 4 6 5 4 4
20 21 21 19 19 20 21 21 23 22 23 23 26 23 22 15 16 17 14 13 13 16 17 19 19 19 18 16 15 13 13 14 14 18 15 10 10 9 8 8 9 5 3
21 21 22 20 19 20 21 23 22 23 22 25 21 22 20 21 18 20 18 14 16 13 17 18 20 19 19 18 17 14 15 14 14 15 15 13 10 8 9 9 11 8 7
20 18 19 20 17 18 20 20 22 23 25 25 21 20 23 23 21 17 19 20 18 17 17 19 19 19 19 19 19 16 15 16 12 11 16 14 10 11 10 10 10 7 6
13 9 15 13 15 15 15 18 21 23 22 21 22 21 21 22 20 19 19 19 16 18 19 20 19 20 19 19 18 18 17 18 16 15 16 16 15 10 10 10 10 9 5
14 4 6 7 3 3 5 10 15 17 20 21 20 21 20 18 19 20 20 18 19 18 19 18 18 18 19 19 20 19 16 17 18 17 17 17 11 15 14 10 14 11 8
11 11 10 11 11 9 5 3 5 13 15 15 18 19 19 18 21 21 21 19 19 19 17 18 20 20 20 19 19 18 17 17 18 17 17 17 16 15 12 12 11 10 6
12 13 12 12 13 11 10 8 4 4 7 11 15 17 19 20 19 20 20 19 18 18 18 20 19 18 18 17 17 17 15 14 15 14 16 16 17 15 15 11 11 10 6
10 14 14 12 13 14 12 10 8 5 5 9 13 17 17 17 18 19 19 18 18 17 18 17 17 17 16 13 19 15 15 14 13 12 14 13 15 16 19 15 13 15 10
8 9 12 13 14 16 14 12 10 9 5 6 11 12 13 15 18 17 17 17 17 17 17 17 18 16 12 16 17 17 14 14 13 11 9 9 12 12 13 13 18 22 18
9 10 10 12 12 13 13 13 13 9 7 6 8 11 12 15 16 16 16 17 17 14 16 16 16 17 17 17 21 18 13 13 13 13 12 10 9 14 11 13 16 15 21
6 10 9 12 13 13 13 12 13 13 9 9 6 7 12 13 14 15 16 15 13 14 12 14 16 16 14 20 21 19 12 12 13 14 15 14 16 15 17 15 13 11 8
5 7 8 10 13 16 15 14 15 15 13 11 8 7 7 12 13 15 15 13 11 12 13 13 15 16 12 18 20 19 12 11 13 12 14 16 18 22 25 16 15 11 6
3 7 8 8 12 13 15 16 15 16 17 15 9 7 7 7 12 13 13 12 11 12 10 12 14 15 11 18 24 20 10 11 9 9 10 12 17 29 27 19 19 15 11
5 1 4 9 11 13 13 14 15 16 16 15 13 11 10 9 10 8 8 11 12 9 10 10 7 9 12 14 24 19 13 11 9 9 7 7 20 29 28 24 19 18 16
18 14 4 4 8 11 12 12 11 12 14 15 13 12 11 8 7 7 2 8 10 10 8 8 6 4 5 11 15 11 10 15 12 11 8 10 26 25 19 13 24 25 15
14 15 15 12 10 3 8 8 11 9 11 14 14 11 10 9 8 5 5 4 4 7 6 6 6 4 3 5 13 12 15 11 8 8 11 23 23 23 18 28 28 21 13
13 12 13 13 13 13 10 7 7 11 8 10 13 12 10 9 6 4 4 1 3 4 4 5 6 5 4 6 7 8 11 18 13 18 16 17 16 13 14 17 15 9 9
13 12 12 11 12 12 11 10 11 9 10 8 7 8 7 5 5 4 5 3 2 3 3 3 5 8 7 7 10 15 11 10 14 16 13 13 12 12 12 11 10 10 11
13 13 13 14 14 13 12 12 13 13 9 10 6 5 5 5 3 3 4 9 5 3 3 9 7 2 8 13 12 14 18 24 25 12 13 12 12 14 13 13 12 11 13
Wind_Direction
242 224 200 193 187 182 183 188 187 187 181 184 183 188 194 190 196 199 201 195 194 194 195 198 196 193 195 192 185 184 190 195 180 159 124 80 71 66 43 61 89 106 115
245 233 206 194 189 186 185 184 188 186 189 188 193 197 195 199 200 203 202 199 197 193 195 197 198 196 194 194 186 181 174 192 185 188 170 167 136 68 55 86 88 95 111
250 238 218 197 193 193 187 188 187 189 189 190 190 197 190 201 200 206 203 201 199 198 197 198 198 196 198 194 193 190 188 185 186 200 185 166 207 136 63 60 77 91 96
248 252 233 214 200 200 191 190 189 189 188 187 189 195 196 197 202 204 197 197 202 201 201 201 201 199 197 199 197 196 194 189 191 196 210 175 136 165 154 87 71 77 87
237 244 237 227 210 200 194 195 191 191 186 190 193 194 205 208 196 196 193 199 201 207 202 203 200 203 202 202 199 195 197 197 197 199 184 191 151 128 147 147 135 89 80
232 238 241 229 214 199 196 192 194 196 190 190 195 198 204 202 198 193 192 195 198 202 206 207 206 203 205 204 201 198 199 198 202 206 202 197 191 176 153 126 145 132 104
229 231 233 226 221 201 195 193 195 200 194 195 198 201 206 199 203 196 194 193 197 200 206 204 206 205 207 205 201 202 203 199 199 199 201 206 204 165 153 127 133 138 156
227 227 226 219 216 211 196 195 196 199 196 195 202 204 205 205 205 201 199 201 203 207 198 203 208 209 209 208 203 205 207 201 202 202 204 200 203 188 165 147 147 142 151
231 222 224 221 211 212 202 197 196 197 197 201 200 205 205 208 206 206 204 201 205 205 203 199 204 205 206 204 200 207 206 205 202 206 203 202 193 185 176 163 168 150 164
238 226 222 221 219 210 206 199 198 196 198 199 200 205 206 207 210 205 205 207 206 199 197 199 201 200 205 204 202 205 202 203 206 205 202 202 188 182 173 169 179 175 148
231 241 237 229 219 213 205 201 200 200 201 199 202 205 209 210 209 210 212 211 206 202 202 199 197 198 200 204 204 207 203 204 202 201 199 199 188 187 181 170 173 175 157
232 68 31 31 73 172 205 210 211 207 207 204 200 206 210 206 207 214 213 207 209 205 205 201 201 200 199 201 205 206 203 203 207 204 199 198 185 191 182 189 174 171 164
48 50 40 40 22 15 39 100 224 220 211 206 202 204 208 204 209 211 214 209 207 207 204 202 202 201 201 202 204 203 203 205 207 203 200 197 190 191 182 176 176 165 155
33 56 42 45 34 16 11 3 2 292 250 210 206 203 204 208 208 211 212 211 208 207 203 205 204 202 200 203 201 199 200 203 209 201 201 194 193 187 170 167 168 140 131
24 46 43 31 26 18 7 0 347 342 283 240 213 211 207 209 209 212 211 211 208 209 205 203 204 201 197 198 197 194 198 198 199 195 198 189 189 180 168 155 158 139 125
17 42 47 35 32 26 10 2 347 334 318 269 245 230 215 211 213 211 211 209 208 204 203 201 201 201 200 189 181 188 193 189 179 176 174 160 139 153 157 153 156 153 146
356 28 39 36 28 31 14 7 3 340 330 295 262 244 227 216 214 212 208 210 207 201 201 200 198 204 203 173 184 186 184 182 177 165 153 145 151 152 150 148 149 164 159
28 21 33 31 31 22 16 13 15 5 354 0 338 253 240 230 217 210 208 208 201 198 197 198 197 202 203 179 178 172 175 171 173 169 165 161 158 162 148 154 146 157 132
359 24 39 40 30 24 14 16 16 11 9 0 354 348 312 236 219 210 206 203 190 197 202 201 197 202 197 171 163 169 167 165 172 171 172 168 168 159 156 151 143 132 105
335 13 29 57 38 24 20 15 8 6 4 354 346 349 353 327 216 207 197 196 191 195 193 199 196 192 176 172 168 171 168 164 167 166 172 178 170 155 157 157 151 152 154
342 328 22 47 71 45 17 15 4 1 344 345 4 358 4 7 346 216 185 188 190 181 180 175 169 168 166 177 180 168 165 166 155 156 146 151 156 161 164 163 164 159 145
21 16 338 55 58 60 53 2 352 341 338 335 4 5 4 3 5 352 5 157 156 154 145 131 94 76 126 159 175 158 152 155 154 162 155 150 160 159 148 141 124 127 130
0 1 10 23 19 18 61 34 333 319 330 329 347 354 3 2 4 346 2 15 85 138 137 144 133 112 76 99 122 117 121 109 117 133 136 140 143 134 122 129 129 133 137
351 352 356 4 5 3 357 360 357 325 305 321 325 334 3 344 8 10 3 14 62 84 108 122 115 114 115 130 132 125 111 105 104 117 126 133 133 126 126 129 135 137 146
350 350 352 349 346 345 343 345 349 1 339 311 305 315 329 354 355 40 355 355 335 141 148 127 145 150 167 185 168 154 147 137 137 126 129 137 141 142 142 147 144 141 141
344 346 347 341 336 335 336 338 343 337 336 323 342 308 298 316 348 345 359 20 27 117 103 145 146 97 126 141 147 136 134 138 141 137 151 160 162 159 158 160 157 159 160